Time,TemperatureF,DewpointF,PressureIn,WindDirection,WindDirectionDegrees,WindSpeedMPH,WindSpeedGustMPH,Humidity,HourlyPrecipIn,Conditions,Clouds,dailyrainin,SolarRadiationWatts/m^2,SoftwareType,DateUTC
2013-09-01 00:03:00,68.0,65.0,-100.00,NE,53,0.0,2.0,89,0.00,,,0.00,0.000000,,2013-09-01 05:03:00,
2013-09-01 00:12:00,68.0,65.0,-100.00,NE,53,0.0,2.0,89,0.00,,,0.00,0.000000,,2013-09-01 05:12:00,
2013-09-01 00:43:00,64.0,62.0,-100.00,ESE,118,2.0,4.0,93,0.00,,,0.00,0.000000,,2013-09-01 05:43:00,
2013-09-01 00:52:00,64.0,62.0,-100.00,ESE,118,2.0,4.0,93,0.00,,,0.00,0.000000,,2013-09-01 05:52:00,
2013-09-01 01:02:00,64.0,62.0,-100.00,ESE,118,2.0,4.0,93,0.00,,,0.00,0.000000,,2013-09-01 06:02:00,
2013-09-01 01:12:00,64.0,62.0,-100.00,ESE,118,2.0,4.0,93,0.00,,,0.00,0.000000,,2013-09-01 06:12:00,
2013-09-01 01:42:00,65.0,60.0,-100.00,SW,219,1.0,4.0,84,0.00,,,0.00,0.000000,,2013-09-01 06:42:00,
2013-09-01 01:52:00,65.0,60.0,-100.00,SW,219,1.0,4.0,84,0.00,,,0.00,0.000000,,2013-09-01 06:52:00,
2013-09-01 02:02:00,65.0,60.0,-100.00,SW,219,1.0,4.0,84,0.00,,,0.00,0.000000,,2013-09-01 07:02:00,
2013-09-01 02:12:00,65.0,60.0,-100.00,SW,219,1.0,4.0,84,0.00,,,0.00,0.000000,,2013-09-01 07:12:00,
2013-09-01 02:42:00,63.0,60.0,-100.00,South,177,3.0,4.0,90,0.00,,,0.00,0.000000,,2013-09-01 07:42:00,
2013-09-01 02:52:00,63.0,60.0,-100.00,South,177,3.0,4.0,90,0.00,,,0.00,0.000000,,2013-09-01 07:52:00,
2013-09-01 03:02:00,63.0,60.0,-100.00,South,177,3.0,4.0,90,0.00,,,0.00,0.000000,,2013-09-01 08:02:00,
2013-09-01 03:11:00,63.0,60.0,-100.00,South,177,3.0,4.0,90,0.00,,,0.00,0.000000,,2013-09-01 08:11:00,
2013-09-01 03:43:00,62.0,59.0,-100.00,WSW,247,1.0,3.0,89,0.00,,,0.00,0.000000,,2013-09-01 08:43:00,
2013-09-01 03:52:00,62.0,59.0,-100.00,WSW,247,1.0,3.0,89,0.00,,,0.00,0.000000,,2013-09-01 08:52:00,
2013-09-01 04:02:00,62.0,59.0,-100.00,WSW,247,1.0,3.0,89,0.00,,,0.00,0.000000,,2013-09-01 09:02:00,
2013-09-01 04:11:00,62.0,59.0,-100.00,WSW,247,1.0,3.0,89,0.00,,,0.00,0.000000,,2013-09-01 09:11:00,
2013-09-01 04:43:00,62.0,60.0,-100.00,SW,228,1.0,5.0,94,0.00,,,0.00,0.000000,,2013-09-01 09:43:00,
2013-09-01 04:53:00,62.0,60.0,-100.00,SW,228,1.0,5.0,94,0.00,,,0.00,0.000000,,2013-09-01 09:53:00,
2013-09-01 05:03:00,62.0,60.0,-100.00,SW,228,1.0,5.0,94,0.00,,,0.00,0.000000,,2013-09-01 10:03:00,
2013-09-01 05:12:00,62.0,60.0,-100.00,SW,228,1.0,5.0,94,0.00,,,0.00,0.000000,,2013-09-01 10:12:00,
2013-09-01 05:42:00,65.0,60.0,-100.00,WNW,303,5.0,10.0,84,0.00,,,0.00,0.000000,,2013-09-01 10:42:00,
2013-09-01 05:53:00,65.0,60.0,-100.00,WNW,303,5.0,10.0,84,0.00,,,0.00,0.000000,,2013-09-01 10:53:00,
2013-09-01 06:02:00,65.0,60.0,-100.00,WNW,303,5.0,10.0,84,0.00,,,0.00,0.000000,,2013-09-01 11:02:00,
2013-09-01 06:12:00,65.0,60.0,-100.00,WNW,303,5.0,10.0,84,0.00,,,0.00,0.000000,,2013-09-01 11:12:00,
2013-09-01 06:42:00,60.0,57.0,-100.00,WNW,287,0.0,7.0,89,0.00,,,0.00,0.000000,,2013-09-01 11:42:00,
2013-09-01 06:52:00,60.0,57.0,-100.00,WNW,287,0.0,7.0,89,0.00,,,0.00,0.000000,,2013-09-01 11:52:00,
2013-09-01 07:01:00,60.0,57.0,-100.00,WNW,287,0.0,7.0,89,0.00,,,0.00,0.000000,,2013-09-01 12:01:00,
2013-09-01 07:12:00,60.0,57.0,-100.00,WNW,287,0.0,7.0,89,0.00,,,0.00,0.000000,,2013-09-01 12:12:00,
2013-09-01 07:42:00,57.0,56.0,-100.00,South,170,0.0,3.0,95,0.00,,,0.00,10.000000,,2013-09-01 12:42:00,
2013-09-01 07:52:00,57.0,56.0,-100.00,South,170,0.0,3.0,95,0.00,,,0.00,10.000000,,2013-09-01 12:52:00,
2013-09-01 08:02:00,57.0,56.0,-100.00,South,170,0.0,3.0,95,0.00,,,0.00,10.000000,,2013-09-01 13:02:00,
2013-09-01 08:11:00,57.0,56.0,-100.00,South,170,0.0,3.0,95,0.00,,,0.00,10.000000,,2013-09-01 13:11:00,
2013-09-01 08:42:00,67.0,61.0,-100.00,NW,304,5.0,12.0,80,0.00,,,0.00,156.000000,,2013-09-01 13:42:00,
2013-09-01 08:52:00,67.0,61.0,-100.00,NW,304,5.0,12.0,80,0.00,,,0.00,156.000000,,2013-09-01 13:52:00,
2013-09-01 09:02:00,67.0,61.0,-100.00,NW,304,5.0,12.0,80,0.00,,,0.00,156.000000,,2013-09-01 14:02:00,
2013-09-01 09:11:00,67.0,61.0,-100.00,NW,304,5.0,12.0,80,0.00,,,0.00,156.000000,,2013-09-01 14:11:00,
2013-09-01 09:42:00,70.0,61.0,-100.00,NW,317,6.0,17.0,73,0.00,,,0.00,305.000000,,2013-09-01 14:42:00,
2013-09-01 09:52:00,70.0,61.0,-100.00,NW,317,6.0,17.0,73,0.00,,,0.00,305.000000,,2013-09-01 14:52:00,
2013-09-01 10:02:00,70.0,61.0,-100.00,NW,317,6.0,17.0,73,0.00,,,0.00,305.000000,,2013-09-01 15:02:00,
2013-09-01 10:11:00,70.0,61.0,-100.00,NW,317,6.0,17.0,73,0.00,,,0.00,305.000000,,2013-09-01 15:11:00,
2013-09-01 10:45:00,69.0,58.0,-100.00,NNW,337,5.0,19.0,68,0.00,,,0.00,250.000000,,2013-09-01 15:45:00,
2013-09-01 10:55:00,69.0,58.0,-100.00,NNW,337,5.0,19.0,68,0.00,,,0.00,250.000000,,2013-09-01 15:55:00,
2013-09-01 11:05:00,69.0,58.0,-100.00,NNW,337,5.0,19.0,68,0.00,,,0.00,250.000000,,2013-09-01 16:05:00,
2013-09-01 11:14:00,69.0,58.0,-100.00,NNW,337,5.0,19.0,68,0.00,,,0.00,250.000000,,2013-09-01 16:14:00,
2013-09-01 11:43:00,71.0,58.0,-100.00,NW,313,6.0,14.0,63,0.00,,,0.00,319.000000,,2013-09-01 16:43:00,
2013-09-01 11:53:00,71.0,58.0,-100.00,NW,313,6.0,14.0,63,0.00,,,0.00,319.000000,,2013-09-01 16:53:00,
2013-09-01 12:03:00,71.0,58.0,-100.00,NW,313,6.0,14.0,63,0.00,,,0.00,319.000000,,2013-09-01 17:03:00,
2013-09-01 12:12:00,71.0,58.0,-100.00,NW,313,6.0,14.0,63,0.00,,,0.00,319.000000,,2013-09-01 17:12:00,
2013-09-01 12:42:00,71.0,58.0,-100.00,NW,317,8.0,17.0,63,0.00,,,0.00,354.000000,,2013-09-01 17:42:00,
2013-09-01 12:52:00,71.0,58.0,-100.00,NW,317,8.0,17.0,63,0.00,,,0.00,354.000000,,2013-09-01 17:52:00,
2013-09-01 13:02:00,71.0,58.0,-100.00,NW,317,8.0,17.0,63,0.00,,,0.00,354.000000,,2013-09-01 18:02:00,
2013-09-01 13:13:00,71.0,58.0,-100.00,NW,317,8.0,17.0,63,0.00,,,0.00,354.000000,,2013-09-01 18:13:00,
2013-09-01 13:42:00,72.0,58.0,-100.00,NW,307,8.0,17.0,62,0.00,,,0.00,372.000000,,2013-09-01 18:42:00,
2013-09-01 13:52:00,72.0,58.0,-100.00,NW,307,8.0,17.0,62,0.00,,,0.00,372.000000,,2013-09-01 18:52:00,
2013-09-01 14:02:00,72.0,58.0,-100.00,NW,307,8.0,17.0,62,0.00,,,0.00,372.000000,,2013-09-01 19:02:00,
2013-09-01 14:12:00,72.0,58.0,-100.00,NW,307,8.0,17.0,62,0.00,,,0.00,372.000000,,2013-09-01 19:12:00,
2013-09-01 14:42:00,71.0,59.0,-100.00,NNW,332,7.0,18.0,65,0.00,,,0.00,313.000000,,2013-09-01 19:42:00,
2013-09-01 14:52:00,71.0,59.0,-100.00,NNW,332,7.0,18.0,65,0.00,,,0.00,313.000000,,2013-09-01 19:52:00,
2013-09-01 15:02:00,71.0,59.0,-100.00,NNW,332,7.0,18.0,65,0.00,,,0.00,313.000000,,2013-09-01 20:02:00,
2013-09-01 15:12:00,71.0,59.0,-100.00,NNW,332,7.0,18.0,65,0.00,,,0.00,313.000000,,2013-09-01 20:12:00,
2013-09-01 15:42:00,71.0,58.0,-100.00,NW,309,6.0,15.0,63,0.00,,,0.00,277.000000,,2013-09-01 20:42:00,
2013-09-01 15:52:00,71.0,58.0,-100.00,NW,309,6.0,15.0,63,0.00,,,0.00,277.000000,,2013-09-01 20:52:00,
2013-09-01 16:02:00,71.0,58.0,-100.00,NW,309,6.0,15.0,63,0.00,,,0.00,277.000000,,2013-09-01 21:02:00,
2013-09-01 16:11:00,71.0,58.0,-100.00,NW,309,6.0,15.0,63,0.00,,,0.00,277.000000,,2013-09-01 21:11:00,
2013-09-01 16:44:00,72.0,56.0,-100.00,NW,322,7.0,18.0,58,0.00,,,0.00,370.000000,,2013-09-01 21:44:00,
2013-09-01 16:55:00,72.0,56.0,-100.00,NW,322,7.0,18.0,58,0.00,,,0.00,370.000000,,2013-09-01 21:55:00,
2013-09-01 17:04:00,72.0,56.0,-100.00,NW,322,7.0,18.0,58,0.00,,,0.00,370.000000,,2013-09-01 22:04:00,
2013-09-01 17:14:00,72.0,56.0,-100.00,NW,322,7.0,18.0,58,0.00,,,0.00,370.000000,,2013-09-01 22:14:00,
2013-09-01 17:43:00,71.0,57.0,-100.00,NW,324,7.0,16.0,61,0.00,,,0.00,197.000000,,2013-09-01 22:43:00,
2013-09-01 17:53:00,71.0,57.0,-100.00,NW,324,7.0,16.0,61,0.00,,,0.00,197.000000,,2013-09-01 22:53:00,
2013-09-01 18:03:00,71.0,57.0,-100.00,NW,324,7.0,16.0,61,0.00,,,0.00,197.000000,,2013-09-01 23:03:00,
2013-09-01 18:12:00,71.0,57.0,-100.00,NW,324,7.0,16.0,61,0.00,,,0.00,197.000000,,2013-09-01 23:12:00,
2013-09-01 18:42:00,68.0,55.0,-100.00,NNW,342,6.0,16.0,64,0.00,,,0.00,104.000000,,2013-09-01 23:42:00,
2013-09-01 18:53:00,68.0,55.0,-100.00,NNW,342,6.0,16.0,64,0.00,,,0.00,104.000000,,2013-09-01 23:53:00,
2013-09-01 19:02:00,68.0,55.0,-100.00,NNW,342,6.0,16.0,64,0.00,,,0.00,104.000000,,2013-09-02 00:02:00,
2013-09-01 19:11:00,68.0,55.0,-100.00,NNW,342,6.0,16.0,64,0.00,,,0.00,104.000000,,2013-09-02 00:11:00,
2013-09-01 19:42:00,67.0,53.0,-100.00,NW,319,6.0,17.0,61,0.00,,,0.00,58.000000,,2013-09-02 00:42:00,
2013-09-01 19:52:00,67.0,53.0,-100.00,NW,319,6.0,17.0,61,0.00,,,0.00,58.000000,,2013-09-02 00:52:00,
2013-09-01 20:02:00,67.0,53.0,-100.00,NW,319,6.0,17.0,61,0.00,,,0.00,58.000000,,2013-09-02 01:02:00,
2013-09-01 20:12:00,67.0,53.0,-100.00,NW,319,6.0,17.0,61,0.00,,,0.00,58.000000,,2013-09-02 01:12:00,
2013-09-01 20:42:00,63.0,54.0,-100.00,NNW,332,1.0,13.0,72,0.00,,,0.00,10.000000,,2013-09-02 01:42:00,
2013-09-01 20:52:00,63.0,54.0,-100.00,NNW,332,1.0,13.0,72,0.00,,,0.00,10.000000,,2013-09-02 01:52:00,
2013-09-01 21:02:00,63.0,54.0,-100.00,NNW,332,1.0,13.0,72,0.00,,,0.00,10.000000,,2013-09-02 02:02:00,
2013-09-01 21:12:00,63.0,54.0,-100.00,NNW,332,1.0,13.0,72,0.00,,,0.00,10.000000,,2013-09-02 02:12:00,
2013-09-01 21:42:00,62.0,53.0,-100.00,NNW,335,3.0,7.0,72,0.00,,,0.00,0.000000,,2013-09-02 02:42:00,
2013-09-01 21:52:00,62.0,53.0,-100.00,NNW,335,3.0,7.0,72,0.00,,,0.00,0.000000,,2013-09-02 02:52:00,
2013-09-01 22:02:00,62.0,53.0,-100.00,NNW,335,3.0,7.0,72,0.00,,,0.00,0.000000,,2013-09-02 03:02:00,
2013-09-01 22:11:00,62.0,53.0,-100.00,NNW,335,3.0,7.0,72,0.00,,,0.00,0.000000,,2013-09-02 03:11:00,
2013-09-01 22:44:00,61.0,53.0,-100.00,WNW,303,3.0,5.0,75,0.00,,,0.00,0.000000,,2013-09-02 03:44:00,
2013-09-01 22:56:00,61.0,53.0,-100.00,WNW,303,3.0,5.0,75,0.00,,,0.00,0.000000,,2013-09-02 03:56:00,
2013-09-01 23:04:00,61.0,53.0,-100.00,WNW,303,3.0,5.0,75,0.00,,,0.00,0.000000,,2013-09-02 04:04:00,
2013-09-01 23:14:00,61.0,53.0,-100.00,WNW,303,3.0,5.0,75,0.00,,,0.00,0.000000,,2013-09-02 04:14:00,
2013-09-01 23:44:00,60.0,52.0,-100.00,NNW,337,2.0,6.0,74,0.00,,,0.00,0.000000,,2013-09-02 04:44:00,
2013-09-01 23:54:00,60.0,52.0,-100.00,NNW,337,2.0,6.0,74,0.00,,,0.00,0.000000,,2013-09-02 04:54:00,